Wind from 354 at 2 knots

Air temperature 1.7° C
Dewpoint -3.0° C

Last reported at 2014-Apr-18 01:49 UTC.
Time now 2014-Apr-18 03:00 UTC

Location: N 68°28' E 016°04'.
View on Google Maps.

See reports from other nearby stations

Tides Stations Pressure Air Temp Water Temp Dewpoint Dewpoint depression Visibility Wind Speed Wind Dir Waves Ship positions

  
sailing weather and tide predictions

LA8QT Lodingen NO weather

date/time (UTC)wind fromknots sea level pressurealtimeterstation pressurevisibilityair tempwater tempwave heightnotes
2014-Apr-18 01:49 354 2 1.7
2014-Apr-18 01:34 354 1 2.2
2014-Apr-18 01:19 354 4 2.2
2014-Apr-18 01:04 014 6 2.2
2014-Apr-18 00:49 294 2 2.2
2014-Apr-18 00:34 352 2.2
2014-Apr-18 00:19 351 3 2.2
2014-Apr-18 00:04 347 6 2.2
2014-Apr-17 23:49 357 0 2.2
2014-Apr-17 23:34 357 6 2.8
2014-Apr-17 23:19 002 2 2.8
2014-Apr-17 23:04 358 5 2.8
2014-Apr-17 22:49 008 5 2.8
2014-Apr-17 22:34 342 2 2.8
2014-Apr-17 22:19 333 0 2.2
2014-Apr-17 22:04 333 2.2
2014-Apr-17 21:49 333 2 2.8
2014-Apr-17 21:34 336 2 2.8
2014-Apr-17 21:19 335 0 2.2
2014-Apr-17 21:04 335 0 2.2
2014-Apr-17 20:49 335 2.2
2014-Apr-17 20:34 335 2.8
2014-Apr-17 20:19 335 6 3.3
2014-Apr-17 20:04 008 2 3.3
2014-Apr-17 19:49 052 2 3.3
2014-Apr-17 19:34 354 3 2.8
2014-Apr-17 19:19 055 2 3.3
2014-Apr-17 19:04 049 3 3.3
2014-Apr-17 18:49 008 6 3.3
2014-Apr-17 18:04 346 3 3.3
2014-Apr-17 17:49 346 1 3.9
2014-Apr-17 17:34 346 2 3.9
2014-Apr-17 17:19 346 1 3.9
2014-Apr-17 17:04 347 2 3.9
2014-Apr-17 16:49 346 4.4
2014-Apr-17 16:33 346 2 4.4
2014-Apr-17 16:18 346 2 4.4
2014-Apr-17 16:03 336 2 4.4
2014-Apr-17 15:48 332 0 5.0
2014-Apr-17 15:33 332 0 5.0
2014-Apr-17 15:18 324 5.0
2014-Apr-17 15:03 325 0 5.0
2014-Apr-17 14:48 294 1 5.0
2014-Apr-17 14:33 280 0 5.0
2014-Apr-17 14:18 238 1 5.0
2014-Apr-17 14:03 185 4.4
2014-Apr-17 13:48 185 1 3.9
2014-Apr-17 13:33 187 5 3.9
2014-Apr-17 13:18 190 6 3.9
2014-Apr-17 13:03 183 4 3.3
2014-Apr-17 12:48 197 6 3.3
2014-Apr-17 12:33 228 2 3.9
2014-Apr-17 12:18 247 5 3.3
2014-Apr-17 12:03 257 4 3.3
2014-Apr-17 11:48 265 6 2.8
2014-Apr-17 11:33 263 6 3.3
2014-Apr-17 11:18 270 6 3.3
2014-Apr-17 11:03 237 6 3.9
2014-Apr-17 10:48 238 8 3.9
2014-Apr-17 10:33 227 9 3.9
2014-Apr-17 10:18 222 10 3.9
2014-Apr-17 10:03 238 11 3.9
2014-Apr-17 09:48 210 12 3.9
2014-Apr-17 09:33 222 10 3.9
2014-Apr-17 09:18 245 8 3.9
2014-Apr-17 09:03 228 8 3.9
2014-Apr-17 08:48 222 10 3.9
2014-Apr-17 08:33 226 9 3.9
2014-Apr-17 08:18 240 11 4.4
2014-Apr-17 08:03 211 10 3.9
2014-Apr-17 07:48 247 9 3.9
2014-Apr-17 07:33 218 11 3.9
2014-Apr-17 07:18 238 10 3.9
2014-Apr-17 07:03 236 11 3.3
2014-Apr-17 06:48 230 10 3.9
2014-Apr-17 06:33 213 10 3.3
2014-Apr-17 06:18 240 12 3.9
2014-Apr-17 06:03 268 11 3.9
2014-Apr-17 05:48 263 10 3.9
2014-Apr-17 05:33 279 13 3.3
2014-Apr-17 05:18 280 13 3.3
2014-Apr-17 05:03 275 5 2.2
2014-Apr-17 04:48 289 12 2.2
2014-Apr-17 04:33 252 16 3.9
2014-Apr-17 04:18 240 14 4.4
2014-Apr-17 04:03 268 14 4.4
2014-Apr-17 03:48 260 14 3.9
2014-Apr-17 03:33 278 13 3.9
2014-Apr-17 03:18 263 13 3.9
2014-Apr-17 03:03 264 13 3.9
2014-Apr-17 02:48 264 13 3.9
2014-Apr-17 02:33 257 13 3.9
2014-Apr-17 02:18 247 13 3.9
2014-Apr-17 02:03 261 13 3.9
2014-Apr-17 01:48 259 14 3.9
2014-Apr-17 01:33 256 14 3.9
2014-Apr-17 01:18 274 14 3.9
2014-Apr-17 01:03 261 14 3.9
2014-Apr-17 00:47 248 15 3.9
2014-Apr-17 00:32 256 13 4.4
2014-Apr-17 00:17 268 13 4.4
2014-Apr-17 00:02 264 16 4.4
2014-Apr-16 23:47 248 18 5.0
2014-Apr-16 23:32 241 20 5.0
2014-Apr-16 23:17 249 19 5.0
2014-Apr-16 23:02 249 18 5.0
2014-Apr-16 22:47 267 18 5.0
2014-Apr-16 22:32 253 17 5.0
2014-Apr-16 22:17 263 19 5.0
2014-Apr-16 22:02 265 19 5.0
2014-Apr-16 21:47 248 16 5.6
2014-Apr-16 21:32 268 16 5.0
2014-Apr-16 21:17 256 16 5.0
2014-Apr-16 21:02 253 15 5.0
2014-Apr-16 20:47 257 13 5.0
2014-Apr-16 20:32 282 16 5.0
2014-Apr-16 20:17 268 18 5.6
2014-Apr-16 20:02 269 18 5.6
2014-Apr-16 19:17 259 15 5.0
2014-Apr-16 19:02 262 15 4.4
2014-Apr-16 18:47 234 13 4.4
2014-Apr-16 18:32 268 14 4.4
2014-Apr-16 18:17 243 13 3.9
2014-Apr-16 18:02 245 12 3.9
2014-Apr-16 17:47 265 10 3.9
2014-Apr-16 17:32 240 12 3.9
2014-Apr-16 17:17 251 10 3.9
2014-Apr-16 17:02 243 12 3.9
2014-Apr-16 16:47 237 10 3.9
2014-Apr-16 16:32 234 10 3.9
2014-Apr-16 16:17 259 11 3.9
2014-Apr-16 16:02 222 9 3.9
2014-Apr-16 15:47 224 10 3.9
2014-Apr-16 15:32 253 8 3.9
2014-Apr-16 15:17 244 11 3.9
2014-Apr-16 15:02 253 11 3.9
2014-Apr-16 14:46 237 11 3.9
2014-Apr-16 14:31 244 11 3.9
2014-Apr-16 14:16 238 12 3.9
2014-Apr-16 14:01 260 13 3.9
2014-Apr-16 13:46 234 13 3.9
2014-Apr-16 13:31 244 13 3.9
2014-Apr-16 13:16 242 13 3.3
2014-Apr-16 13:01 237 12 3.3
2014-Apr-16 12:46 240 13 3.3
2014-Apr-16 12:31 245 13 3.3
2014-Apr-16 12:16 232 11 3.3
2014-Apr-16 12:01 229 10 3.3
2014-Apr-16 11:46 277 12 3.3
2014-Apr-16 11:31 238 13 3.3
2014-Apr-16 11:16 259 11 3.3
2014-Apr-16 11:01 255 10 3.9
2014-Apr-16 10:46 238 12 3.9
2014-Apr-16 10:31 228 12 3.9
2014-Apr-16 10:16 238 12 3.9
2014-Apr-16 10:01 231 11 3.3
2014-Apr-16 09:46 238 11 3.3
2014-Apr-16 09:31 244 12 3.3
2014-Apr-16 09:16 245 11 3.3
2014-Apr-16 09:01 232 9 3.3
2014-Apr-16 08:46 244 9 3.3
2014-Apr-16 08:31 241 8 3.3
2014-Apr-16 08:16 270 10 3.3
2014-Apr-16 08:01 229 11 2.8
2014-Apr-16 07:46 238 13 2.8
2014-Apr-16 07:31 214 12 2.2
2014-Apr-16 07:16 227 10 2.2
2014-Apr-16 07:00 209 12 1.7
2014-Apr-16 06:45 225 6 1.1
2014-Apr-16 06:30 255 3 0.6
2014-Apr-16 06:15 283 3 0.6
2014-Apr-16 06:00 256 4 0.6
2014-Apr-16 05:45 240 3 0.6
2014-Apr-16 05:30 237 1 -0.0
2014-Apr-16 05:15 237 0 -0.0
2014-Apr-16 05:00 237 1 -0.0
2014-Apr-16 04:45 236 0 -0.0
2014-Apr-16 04:30 236 0 -0.0
2014-Apr-16 04:15 225 0 -0.6
2014-Apr-16 04:00 186 -0.0
2014-Apr-16 03:45 184 0 -0.6
2014-Apr-16 03:30 185 3 -0.0
2014-Apr-16 03:15 191 0 -0.0
2014-Apr-16 03:00 191 4 -0.0